EW4092 Weather Reports


time (UTC)temp
C
wind
direction
speed
KPH
gust
KPH
rain 1hr
cm
rain 24hr
cm
rain mn
cm
humidity
%
barometer
mb
20260905193017 13 108 3.2 6.4 0.08 0.51 0.51 88 1018.8
20260905191514 12 73 1.6 6.4 0.13 0.51 0.51 90 1018.9
20260905190013 12 111 1.6 6.4 0.13 0.51 0.51 90 1018.7
20260905184513 12 82 3.2 8.0 0.13 0.51 0.51 90 1018.9
20260905183012 12 103 3.2 11.3 0.10 0.43 0.43 89 1019.0
20260905181510 12 127 0.0 1.6 0.08 0.38 0.38 89 1019.3
20260905180010 12 176 0.0 0.0 0.10 0.38 0.38 88 1019.4
20260905174508 12 176 0.0 1.6 0.08 0.36 0.36 87 1019.3
20260905173007 12 205 0.0 1.6 0.03 0.30 0.30 87 1019.3
20260905171506 12 100 0.0 0.0 0.03 0.30 0.30 85 1019.3
20260905170006 12 100 0.0 3.2 0.00 0.28 0.28 85 1019.0
20260905164503 11 111 0.0 6.4 0.00 0.28 0.28 86 1019.0
20260905163002 11 134 0.0 6.4 0.00 0.28 0.28 86 1018.9
20260905161501 11 111 0.0 4.8 0.00 0.28 0.28 89 1018.8
20260905160134 11 110 0.0 3.2 0.00 0.28 0.28 91 1018.7
20260905154603 10 69 0.0 3.2 0.03 0.28 0.28 91 1018.6
20260905153058 10 69 0.0 1.6 0.13 0.28 0.28 92 1018.7
20260905151603 10 69 0.0 3.2 0.18 0.28 0.28 91 1018.8
20260905150055 10 94 1.6 8.0 0.18 0.28 0.28 90 1018.7
20260905144553 10 38 3.2 9.7 0.18 0.28 0.25 90 1018.6
20260905143153 10 123 4.8 8.0 0.08 0.18 0.15 89 1018.5
20260905141549 10 110 3.2 6.4 0.05 0.13 0.10 88 1018.6
20260905140047 10 103 0.0 4.8 0.08 0.13 0.10 88 1018.3
20260905134544 10 121 0.0 4.8 0.05 0.10 0.08 86 1018.1
20260905133043 10 115 0.0 1.6 0.05 0.10 0.08 86 1017.8
20260905131541 11 111 1.6 4.8 0.03 0.08 0.05 84 1017.9
20260905130040 11 80 3.2 8.0 0.00 0.05 0.03 83 1017.8
20260905124640 11 97 3.2 9.7 0.00 0.05 0.03 83 1017.4
20260905123037 11 102 0.0 1.6 0.00 0.05 0.03 84 1017.5
20260905121536 11 84 0.0 0.0 0.00 0.05 0.03 85 1017.6
20260905120035 11 127 0.0 3.2 0.00 0.05 0.03 84 1017.4
20260905114534 10 77 0.0 1.6 0.00 0.05 0.03 86 1017.4
20260905113032 10 77 0.0 1.6 0.03 0.05 0.03 87 1017.4
20260905111532 10 77 0.0 0.0 0.03 0.05 0.03 86 1017.2
20260905110129 10 77 0.0 1.6 0.03 0.05 0.03 86 1017.2
20260905104526 11 69 0.0 3.2 0.03 0.05 0.03 84 1017.1
20260905103027 11 89 0.0 1.6 0.00 0.03 0.00 80 1017.1
20260905101523 11 64 0.0 1.6 0.00 0.03 0.00 79 1017.1
20260905100022 11 110 0.0 1.6 0.00 0.03 0.00 79 1017.0
20260905094527 11 90 0.0 1.6 0.00 0.03 0.00 79 1017.1
20260905093020 11 110 0.0 1.6 0.00 0.03 0.00 79 1017.0
20260905091625 11 110 0.0 1.6 0.00 0.03 0.00 79 1017.1
20260905090018 11 82 0.0 1.6 0.00 0.03 0.00 79 1017.0
20260905084515 11 84 0.0 1.6 0.00 0.03 0.00 79 1016.9
20260905083012 12 109 0.0 0.0 0.00 0.03 0.00 77 1016.8
20260905081511 12 109 0.0 1.6 0.00 0.03 0.00 77 1016.7
20260905080009 12 99 0.0 1.6 0.00 0.03 0.00 76 1016.6
20260905074511 12 100 0.0 1.6 0.00 0.03 0.00 76 1016.5
20260905073104 12 111 0.0 1.6 0.00 0.03 0.00 76 1016.3
20260905071503 12 133 0.0 1.6 0.00 0.03 0.00 76 1016.1
20260905070002 12 184 0.0 1.6 0.00 0.03 0.00 76 1016.1
20260905064559 12 86 0.0 0.0 0.00 0.03 0.03 76 1016.0
20260905063100 13 109 0.0 1.6 0.00 0.03 0.03 72 1015.9
20260905061621 12 112 0.0 1.6 0.00 0.03 0.03 75 1015.8
20260905060109 12 105 0.0 1.6 0.00 0.03 0.03 76 1015.9
20260905054556 12 105 0.0 1.6 0.00 0.05 0.03 74 1015.9
20260905053056 12 105 0.0 1.6 0.00 0.05 0.03 74 1015.8
20260905051555 12 110 0.0 1.6 0.00 0.05 0.03 76 1015.7
20260905050055 12 108 0.0 0.0 0.00 0.05 0.03 75 1015.7
20260905044554 12 109 0.0 0.0 0.00 0.20 0.03 73 1015.7
20260905043053 12 109 0.0 1.6 0.00 0.20 0.03 71 1015.6
20260905041600 13 110 0.0 0.0 0.00 0.20 0.03 68 1015.8
20260905040052 13 110 0.0 1.6 0.00 0.20 0.03 65 1015.7
20260905034602 14 110 0.0 0.0 0.00 0.81 0.03 64 1015.6
20260905033051 15 110 0.0 1.6 0.00 0.81 0.03 60 1015.6
20260905031550 15 109 0.0 9.7 0.00 0.81 0.03 59 1015.3
20260905030047 15 94 4.8 16.1 0.00 0.81 0.03 56 1015.2
20260905024546 16 111 3.2 12.9 0.00 0.81 0.03 56 1015.3
20260905023046 16 122 4.8 19.3 0.00 0.81 0.03 56 1015.3
20260905021551 16 77 0.0 4.8 0.00 0.81 0.03 56 1015.2
20260905020043 16 225 0.0 6.4 0.00 0.81 0.03 55 1015.1
20260905014541 17 202 1.6 6.4 0.00 0.81 0.03 52 1015.1
20260905013040 17 331 1.6 6.4 0.00 0.81 0.03 54 1015.0
20260905011543 18 49 1.6 8.0 0.00 0.81 0.03 52 1014.5
20260905010036 18 74 3.2 6.4 0.00 0.81 0.03 46 1014.5
20260905004543 18 111 3.2 9.7 0.00 0.81 0.03 47 1014.4
20260905003034 18 79 1.6 11.3 0.00 0.81 0.03 47 1014.1
20260905001547 18 103 6.4 14.5 0.00 0.81 0.03 44 1014.0
20260905000032 19 104 6.4 16.1 0.00 0.81 0.03 46 1014.1
20260904234537 18 85 9.7 14.5 0.00 0.81 0.03 48 1013.9
20260904233040 18 94 6.4 17.7 0.00 0.81 0.03 50 1013.9
20260904231538 18 90 8.0 20.9 0.00 0.81 0.03 50 1014.0
20260904230029 17 95 8.0 17.7 0.00 0.81 0.03 54 1013.9
20260904224627 17 73 9.7 16.1 0.00 0.81 0.03 53 1014.0
20260904223026 18 105 8.0 11.3 0.00 0.81 0.03 53 1013.9
20260904221526 18 96 4.8 11.3 0.00 0.81 0.03 52 1013.9
20260904220026 18 75 6.4 16.1 0.00 0.81 0.03 48 1013.9
20260904214523 19 298 1.6 8.0 0.00 0.81 0.03 46 1013.9
20260904213025 19 327 3.2 16.1 0.00 0.81 0.03 45 1013.7
20260904211521 20 308 1.6 8.0 0.00 0.81 0.03 47 1013.6
20260904210020 20 335 1.6 22.5 0.00 0.81 0.03 43 1013.4
20260904204517 20 335 3.2 12.9 0.00 0.81 0.03 43 1013.3
20260904203014 20 345 6.4 11.3 0.00 0.81 0.03 44 1013.1
20260904201512 20 57 6.4 11.3 0.00 0.81 0.03 46 1013.2
20260904200011 20 39 1.6 12.9 0.00 0.81 0.03 46 1013.3
20260904194508 19 32 4.8 12.9 0.00 0.81 0.03 46 1013.5